Weather History for Eagle River, WI

Change the Weather History Date:

Sunday, May 5, 2013

  Actual Average Record
Temperature  
Mean Temperature 52 °F -  
Max Temperature 71 °F 62 °F 84 °F (2000)
Min Temperature 32 °F 37 °F 24 °F (2002)
Degree Days  
Heating Degree Days 14    
Growing Degree Days 2 (Base 50)    
Moisture  
Dew Point 35 °F    
Average Humidity 67    
Maximum Humidity 100    
Minimum Humidity 23    
Precipitation  
Precipitation 0.00 in - - ()
Sea Level Pressure  
Sea Level Pressure 30.11 in    
Wind  
Wind Speed 4 mph (NNE)    
Max Wind Speed 10 mph    
Max Gust Speed -    
Visibility 10 miles    
Events      
Averages and records for this station are not official NWS values.
T = Trace of Precipitation, MM = Missing Value Source: NWS Daily Summary

Daily Weather History Graph

Daily Weather History Graph

Search for Another Location

Airport:

Trip Planner

Search our weather history database for the weather conditions in past years. The results will help you decide how hot, cold, wet, or windy it might be!

Date:

Astronomy

May. 05, 2013 Rise Set
Actual Time 5:37 AM CDT 8:10 PM CDT
Civil Twilight 5:04 AM CDT 8:44 PM CDT
Nautical Twilight 4:22 AM CDT 9:26 PM CDT
Astronomical Twilight 3:33 AM CDT 10:15 PM CDT
Moon 3:22 AM CDT (5/5) 3:57 PM CDT (5/5)
Length of Visible Light 15h 39m
Length of Day
14h 32m
Waning Crescent, 18% of the Moon is Illuminated
May 5
Waning Crescent
May 9
New
May 17
First Quarter
May 24
Full
May 31
Last Quarter

Hourly Weather History & Observations

Time (CDT) Temp. Windchill Dew Point Humidity Pressure Visibility Wind Dir Wind Speed Gust Speed Precip Events Conditions
12:15 AM 35.6 °F 30.7 °F 35.6 °F 100% 30.15 in 10.0 mi NNE 5.8 mph - N/A   Clear
12:35 AM 35.6 °F 30.7 °F 35.6 °F 100% 30.15 in 10.0 mi NNE 5.8 mph - N/A   Clear
12:55 AM 35.6 °F 32.8 °F 33.8 °F 93% 30.15 in 10.0 mi NNE 3.5 mph - N/A   Clear
1:15 AM 35.6 °F 32.8 °F 33.8 °F 93% 30.15 in 10.0 mi North 3.5 mph - N/A   Clear
1:35 AM 33.8 °F 29.6 °F 33.8 °F 100% 30.14 in 10.0 mi NNE 4.6 mph - N/A   Scattered Clouds
1:55 AM 33.8 °F 28.6 °F 33.8 °F 100% 30.13 in 10.0 mi NNE 5.8 mph - N/A   Scattered Clouds
2:15 AM 33.8 °F 29.6 °F 33.8 °F 100% 30.13 in 10.0 mi North 4.6 mph - N/A   Clear
2:35 AM 33.8 °F 29.6 °F 33.8 °F 100% 30.13 in 10.0 mi NNE 4.6 mph - N/A   Clear
2:55 AM 33.8 °F 29.6 °F 33.8 °F 100% 30.12 in 10.0 mi NNE 4.6 mph - N/A   Clear
3:15 AM 33.8 °F 30.8 °F 33.8 °F 100% 30.12 in 10.0 mi NNE 3.5 mph - N/A   Clear
3:35 AM 33.8 °F 30.8 °F 33.8 °F 100% 30.12 in 10.0 mi North 3.5 mph - N/A   Scattered Clouds
3:55 AM 33.8 °F 30.8 °F 33.8 °F 100% 30.13 in 10.0 mi NNE 3.5 mph - N/A   Scattered Clouds
4:15 AM 33.8 °F 30.8 °F 33.8 °F 100% 30.13 in 10.0 mi NNE 3.5 mph - N/A   Scattered Clouds
4:35 AM 33.8 °F 30.8 °F 33.8 °F 100% 30.13 in 10.0 mi NNE 3.5 mph - N/A   Scattered Clouds
4:55 AM 33.8 °F 30.8 °F 33.8 °F 100% 30.12 in 10.0 mi NNE 3.5 mph - N/A   Scattered Clouds
5:15 AM 32.0 °F 28.7 °F 32.0 °F 100% 30.12 in 10.0 mi NNE 3.5 mph - N/A   Scattered Clouds
5:35 AM 33.8 °F 30.8 °F 33.8 °F 100% 30.13 in 10.0 mi NNE 3.5 mph - N/A   Clear
5:55 AM 32.0 °F 27.5 °F 32.0 °F 100% 30.13 in 10.0 mi NNE 4.6 mph - N/A   Clear
6:15 AM 33.8 °F 29.6 °F 33.8 °F 100% 30.13 in 10.0 mi NNE 4.6 mph - N/A   Clear
6:35 AM 33.8 °F 30.8 °F 33.8 °F 100% 30.13 in 10.0 mi NNE 3.5 mph - N/A   Clear
6:55 AM 33.8 °F 30.8 °F 33.8 °F 100% 30.13 in 10.0 mi NNE 3.5 mph - N/A   Scattered Clouds
7:15 AM 33.8 °F 30.8 °F 33.8 °F 100% 30.14 in 10.0 mi NNE 3.5 mph - N/A   Scattered Clouds
7:35 AM 35.6 °F 31.7 °F 33.8 °F 93% 30.14 in 10.0 mi NNE 4.6 mph - N/A   Clear
7:55 AM 35.6 °F 31.7 °F 35.6 °F 100% 30.14 in 10.0 mi NNE 4.6 mph - N/A   Mostly Cloudy
8:15 AM 37.4 °F 33.8 °F 35.6 °F 93% 30.14 in 10.0 mi NNE 4.6 mph - N/A   Mostly Cloudy
8:35 AM 41.0 °F 39.0 °F 35.6 °F 81% 30.14 in 10.0 mi North 3.5 mph - N/A   Mostly Cloudy
8:55 AM 41.0 °F 39.0 °F 33.8 °F 76% 30.14 in 10.0 mi NNE 3.5 mph - N/A   Mostly Cloudy
9:15 AM 44.6 °F 42.2 °F 35.6 °F 71% 30.14 in 10.0 mi NNE 4.6 mph - N/A   Mostly Cloudy
9:35 AM 46.4 °F 45.2 °F 35.6 °F 66% 30.14 in 10.0 mi NE 3.5 mph - N/A   Mostly Cloudy
9:55 AM 50.0 °F - 35.6 °F 58% 30.14 in 10.0 mi Calm Calm - N/A   Scattered Clouds
10:15 AM 51.8 °F - 35.6 °F 54% 30.14 in 10.0 mi North 3.5 mph - N/A   Clear
10:35 AM 53.6 °F - 35.6 °F 51% 30.14 in 10.0 mi Calm Calm - N/A   Clear
10:55 AM 55.4 °F - 37.4 °F 51% 30.13 in 10.0 mi North 3.5 mph - N/A   Clear
11:15 AM 59.0 °F - 37.4 °F 45% 30.13 in 10.0 mi North 3.5 mph - N/A   Clear
11:35 AM 60.8 °F - 37.4 °F 42% 30.13 in 10.0 mi NNW 4.6 mph - N/A   Clear
11:55 AM 60.8 °F - 37.4 °F 42% 30.12 in 10.0 mi North 3.5 mph - N/A   Clear
12:15 PM 62.6 °F - 37.4 °F 39% 30.12 in 10.0 mi NNW 3.5 mph - N/A   Clear
12:35 PM 64.4 °F - 37.4 °F 37% 30.11 in 10.0 mi ENE 3.5 mph - N/A   Clear
12:55 PM 64.4 °F - 37.4 °F 37% 30.10 in 10.0 mi Calm Calm - N/A   Clear
1:15 PM 66.2 °F - 37.4 °F 35% 30.10 in 10.0 mi SE 4.6 mph - N/A   Clear
1:35 PM 68.0 °F - 37.4 °F 33% 30.09 in 10.0 mi NNE 5.8 mph - N/A   Clear
1:55 PM 68.0 °F - 37.4 °F 33% 30.09 in 10.0 mi WNW 3.5 mph - N/A   Clear
2:15 PM 68.0 °F - 35.6 °F 30% 30.08 in 10.0 mi ENE 8.1 mph - N/A   Clear
2:35 PM 69.8 °F - 35.6 °F 28% 30.07 in 10.0 mi Calm Calm - N/A   Clear
2:55 PM 69.8 °F - 35.6 °F 28% 30.07 in 10.0 mi Calm Calm - N/A   Clear
3:15 PM 69.8 °F - 35.6 °F 28% 30.06 in 10.0 mi Calm Calm - N/A   Scattered Clouds
3:55 PM 69.8 °F - 32.0 °F 25% 30.05 in 10.0 mi ESE 3.5 mph - N/A   Clear
4:15 PM 69.8 °F - 32.0 °F 25% 30.05 in 10.0 mi ESE 4.6 mph - N/A   Clear
4:35 PM 71.6 °F - 32.0 °F 23% 30.05 in 10.0 mi South 5.8 mph - N/A   Clear
4:55 PM 69.8 °F - 32.0 °F 25% 30.05 in 10.0 mi Calm Calm - N/A   Clear
5:15 PM 69.8 °F - 32.0 °F 25% 30.04 in 10.0 mi North 4.6 mph - N/A   Clear
5:35 PM 69.8 °F - 32.0 °F 25% 30.05 in 10.0 mi East 8.1 mph - N/A   Clear
5:55 PM 69.8 °F - 37.4 °F 31% 30.05 in 10.0 mi NE 10.4 mph - N/A   Clear
6:15 PM 66.2 °F - 39.2 °F 37% 30.05 in 10.0 mi North 9.2 mph - N/A   Clear
6:35 PM 64.4 °F - 41.0 °F 42% 30.06 in 10.0 mi NNE 10.4 mph - N/A   Clear
6:55 PM 62.6 °F - 41.0 °F 45% 30.06 in 10.0 mi North 8.1 mph - N/A   Clear
7:15 PM 60.8 °F - 39.2 °F 45% 30.07 in 10.0 mi NNE 8.1 mph - N/A   Clear
7:35 PM 57.2 °F - 41.0 °F 55% 30.07 in 10.0 mi North 8.1 mph - N/A   Clear
7:55 PM 55.4 °F - 39.2 °F 54% 30.08 in 10.0 mi North 6.9 mph - N/A   Clear
8:15 PM 51.8 °F - 37.4 °F 58% 30.08 in 10.0 mi North 5.8 mph - N/A   Clear
8:35 PM 50.0 °F - 37.4 °F 62% 30.10 in 10.0 mi East 5.8 mph - N/A   Clear
8:55 PM 50.0 °F - 37.4 °F 62% 30.10 in 10.0 mi NNE 5.8 mph - N/A   Clear
9:15 PM 48.2 °F - 37.4 °F 66% 30.10 in 10.0 mi Calm Calm - N/A   Clear
9:35 PM 46.4 °F 43.5 °F 35.6 °F 66% 30.10 in 10.0 mi NNE 5.8 mph - N/A   Clear
9:55 PM 44.6 °F 42.2 °F 35.6 °F 71% 30.10 in 10.0 mi North 4.6 mph - N/A   Clear
10:15 PM 44.6 °F 42.2 °F 35.6 °F 71% 30.10 in 10.0 mi NNE 4.6 mph - N/A   Clear
10:35 PM 42.8 °F 40.1 °F 35.6 °F 76% 30.10 in 10.0 mi NNE 4.6 mph - N/A   Clear
10:55 PM 42.8 °F - 35.6 °F 76% 30.10 in 10.0 mi Calm Calm - N/A   Clear
11:15 PM 42.8 °F 41.1 °F 35.6 °F 76% 30.10 in 10.0 mi NNE 3.5 mph - N/A   Clear
11:35 PM 41.0 °F - 35.6 °F 81% 30.10 in 10.0 mi Calm Calm - N/A   Clear
11:55 PM 41.0 °F 39.0 °F 35.6 °F 81% 30.10 in 10.0 mi NNE 3.5 mph - N/A   Clear